一网星座-0579星 (ONEWEB-0579)

导读 | 星芒AI

ONEWEB-0579 是 OneWeb 卫星通信公司发射的低轨通信卫星之一,属于其全球宽带互联网星座计划。该卫星运行在约 1200 公里的近地轨道,旨在为全球用户提供高速、低延迟的互联网服务。OneWeb 星座由数百颗卫星组成,ONEWEB-0579 作为其中一员,支持极地和偏远地区的网络覆盖,增强全球通信能力。该卫星采用先进通信技术,具备高容量和高可靠性,助力实现全球数字连接。

基本信息
目录编号:
56068
目录名称:
ONEWEB-0579
国际标识:
2023-043Y
轨道中心:
EARTH
卫星名称:
一网星座-0579星
卫星全名:
一网星座-0579星 (ONEWEB-0579)
卫星状态:
在轨 (已飞行996 天)
发射日期:
2023-03-26 UTC
国别 :
英国 (GB)
星等 :
--
轨道信息
数据来源 国际轨道数据 AOE轨道数据
星历时间 2025-12-15T15:15:38+0800
19小时前
查看轨道信息
2025-12-13T14:00:00+0800
2天前
查看轨道信息
半长轴 7555.884km 7555.883km
偏心率 0.0002034 0.0002173
轨道倾角 87.922° 87.922°
近地点辐角 71.728° 66.675°
升交点赤经 280.638° 281.049°
平近点角 288.407° 251.962°
近地点 1176.212km 1176.106km
远地点 1179.286km 1179.39km
周期 108.940分钟 108.940分钟
每日圈数 13.218279 13.218281
详细信息
平衡模式:
三轴稳定
覆盖范围:
全球
运营商:
一网卫星公司
运营商所在国:
英国
制造商(研发单位):
一网卫星公司
制造商所在国:
英国
使用方式:
暂无
卫星简介
OneWeb卫星网络由648颗重约125公斤的微型卫星组成,运行在1200公里的轨道上。 每颗卫星都能够提供至少每秒8千兆位的吞吐量,以使用其高吞吐量的Ku频段有效载荷为家庭和移动平台提供互联网接入。该卫星仍在工作。
2D轨道图
3D轨道图
轨道高度分析图
轨道倾角分析图
轨道综合分析图
查看轨道综合分析图